Temperature
21 21 21 21 20 20 19 19 19 19 18 18 17 17 17 17 17 17 17 17 17 17 17 17 17 17 17 17 17 17 17 17 17 17 17 17 17 17 17 17 17 17 18
21 21 21 21 21 21 20 20 19 19 18 18 18 17 17 17 17 17 17 17 17 17 17 17 17 17 17 17 17 17 17 17 17 17 17 17 17 17 17 17 17 17 17
21 22 22 21 21 21 21 20 20 19 19 18 18 17 17 16 16 16 16 16 17 17 17 17 17 17 17 17 17 17 17 17 17 17 17 17 17 16 17 17 17 17 17
22 22 21 21 21 21 21 21 20 20 19 18 18 17 16 16 16 16 16 16 16 16 16 16 16 16 17 17 17 17 17 17 16 16 16 16 16 16 16 17 17 17 17
21 21 21 21 21 21 20 20 20 20 19 18 18 17 16 15 15 15 16 16 16 16 16 16 16 16 16 16 17 17 17 17 16 16 16 16 16 16 16 17 17 17 17
21 21 20 20 20 20 20 19 19 19 19 18 18 17 16 15 15 15 15 15 16 16 16 16 16 16 16 16 16 16 17 17 16 16 16 16 17 16 16 17 17 17 17
21 20 19 19 19 19 19 19 18 18 18 18 18 17 16 15 15 15 15 15 15 15 15 16 16 16 16 16 16 16 16 16 16 16 16 16 16 16 16 16 17 17 17
20 19 19 19 18 18 18 18 17 17 17 17 17 17 17 16 15 15 15 15 15 15 15 15 15 16 16 16 16 16 16 16 16 16 16 16 16 16 16 16 17 17 17
19 19 18 18 18 17 17 17 16 16 16 16 16 16 16 16 15 15 15 15 15 15 15 15 15 15 15 15 16 16 16 16 16 16 16 16 16 16 16 16 16 17 17
18 18 18 18 17 17 16 16 15 15 15 15 15 15 16 16 15 15 15 15 15 14 14 14 14 14 15 15 15 16 16 16 16 16 16 16 16 16 16 16 16 17 17
18 18 17 17 17 17 16 16 15 15 15 15 15 15 15 15 15 15 15 14 14 14 14 14 14 14 14 14 15 15 15 16 16 16 16 16 16 16 16 16 16 16 16
17 17 17 17 16 16 16 15 15 15 15 15 14 14 14 14 14 14 14 14 14 14 14 14 14 14 14 15 15 15 15 15 16 16 16 15 15 16 15 15 16 16 16
16 15 15 15 15 15 15 15 14 14 14 14 14 14 14 14 14 14 14 14 14 14 14 13 13 13 14 15 15 15 15 15 15 16 15 15 15 15 15 15 15 16 16
14 14 14 14 14 14 14 14 14 14 14 14 14 14 14 14 14 14 14 14 13 13 13 13 13 13 13 14 14 15 15 15 15 15 15 15 15 15 15 15 15 15 16
13 13 13 14 14 14 14 14 14 14 14 14 14 14 14 14 14 13 13 13 13 13 13 13 13 13 13 13 13 14 14 14 14 14 15 15 15 15 15 15 15 15 15
12 12 13 13 13 13 13 13 13 13 14 14 14 14 14 14 14 13 13 13 13 13 13 13 13 13 13 13 13 13 13 14 14 14 14 15 15 15 15 15 15 15 15
11 11 12 12 12 13 13 13 13 13 13 13 13 13 13 13 13 13 13 13 13 12 12 12 12 12 12 12 12 12 13 13 14 14 14 14 14 14 14 14 14 14 15
9 10 10 11 11 12 12 12 12 12 12 13 13 13 13 13 13 13 13 13 13 12 12 12 12 12 12 12 12 12 12 13 13 14 14 14 14 14 14 14 14 14 14
8 8 8 9 9 10 10 11 12 12 12 12 12 12 12 12 12 12 12 12 12 12 12 12 12 12 12 12 12 12 12 12 13 13 13 13 14 14 13 13 14 14 14
7 7 7 7 7 7 8 9 9 10 11 11 11 11 11 11 11 11 11 11 12 12 11 11 11 11 11 11 11 12 12 12 12 12 13 13 13 13 13 13 13 13 13
6 6 6 6 6 6 6 6 7 7 7 8 9 10 10 10 10 10 10 10 11 11 11 11 11 11 11 11 11 11 12 12 12 12 12 12 13 13 13 13 13 13 13
6 5 5 5 5 5 4 4 4 5 5 6 7 8 8 9 9 9 10 10 10 10 10 10 10 11 11 11 10 10 11 11 12 12 12 12 12 12 12 12 12 12 12
5 4 4 4 4 4 4 3 3 4 4 4 5 6 7 8 8 9 9 9 10 10 10 10 10 10 10 10 10 10 10 10 11 11 12 12 12 12 12 12 12 12 12
3 3 3 3 3 3 3 3 3 3 3 3 3 4 5 6 7 8 8 9 9 9 9 9 9 10 10 9 9 9 9 10 10 10 10 11 11 11 11 11 12 12 12
3 2 2 2 2 2 2 2 2 2 2 2 2 3 4 5 6 6 7 8 8 9 9 9 9 9 9 9 9 9 9 9 9 10 9 9 10 10 10 10 11 11 11
2 1 1 1 1 1 1 1 1 1 1 1 2 2 2 3 4 5 6 7 7 8 8 8 8 8 9 9 8 8 8 8 9 9 9 9 9 9 9 9 10 10 10
Wind_Speed
4 9 16 15 14 13 12 10 9 8 8 7 6 6 6 6 6 5 5 5 4 3 3 3 3 3 4 5 6 7 7 7 7 7 7 8 9 9 8 7 6 8 8
8 12 16 16 15 14 12 11 9 8 8 7 6 6 5 5 5 5 5 6 6 5 4 4 3 3 3 4 5 6 6 6 5 5 6 6 7 9 9 8 8 7 7
9 13 16 17 15 14 12 11 10 9 8 7 6 5 4 5 5 4 6 7 7 7 6 5 4 3 4 4 5 6 6 6 5 4 4 3 4 7 9 8 8 7 7
11 14 16 18 16 14 12 11 10 9 8 7 6 5 4 4 4 4 3 6 8 8 7 6 5 4 4 4 6 6 7 6 6 5 3 3 4 7 9 9 8 8 8
9 13 16 18 16 14 12 11 10 9 8 7 6 5 5 4 3 3 2 2 5 7 6 5 5 5 5 5 6 7 8 7 7 5 4 5 8 9 9 9 9 8 8
8 11 14 16 14 13 11 10 9 9 8 8 6 6 6 5 4 2 1 1 2 4 6 5 5 6 6 6 7 8 9 9 7 5 3 4 10 12 11 10 9 9 9
7 8 11 13 13 12 11 10 9 9 8 8 7 6 6 7 6 5 3 2 3 4 5 6 6 6 6 7 8 9 10 10 8 6 4 6 12 14 14 12 11 9 8
8 6 8 10 11 11 11 11 10 9 9 8 8 8 7 6 6 7 5 5 5 5 5 5 6 6 7 8 9 9 10 10 9 7 5 7 14 16 15 14 12 10 9
6 5 2 3 5 7 8 9 9 9 9 9 9 9 8 6 5 6 7 7 7 7 6 6 5 5 6 8 9 10 11 12 9 6 4 7 14 17 16 15 13 11 10
7 5 2 0 2 4 6 8 9 10 10 10 10 9 8 8 8 7 7 9 10 10 9 8 7 7 7 7 9 10 11 11 10 9 6 7 14 17 17 16 14 12 11
9 6 5 5 2 2 4 7 10 11 11 12 11 11 10 9 9 9 11 12 13 13 12 12 11 11 10 9 9 10 11 9 9 9 8 10 15 18 17 17 15 14 13
9 8 7 6 6 7 5 0 4 7 9 11 11 11 11 11 11 10 12 15 16 16 15 15 14 14 12 10 10 11 9 10 9 9 10 12 16 19 18 18 16 15 15
10 12 11 9 9 8 6 4 4 5 7 9 10 11 11 10 9 9 7 8 11 14 11 11 11 10 9 9 8 8 10 10 9 11 12 14 17 21 20 19 18 17 16
17 16 14 12 11 11 10 7 6 5 5 5 7 7 6 3 3 4 4 6 6 7 6 7 6 8 9 10 10 8 9 8 9 11 14 16 19 22 21 20 20 19 18
20 19 16 17 17 14 10 9 8 7 6 8 8 7 3 2 3 4 3 4 5 6 5 4 4 6 7 6 7 7 8 9 11 13 13 18 21 23 23 22 21 21 19
17 18 17 18 17 16 13 12 9 11 11 10 9 10 8 3 2 3 4 4 4 5 6 5 6 6 6 5 7 7 8 9 11 13 14 16 23 24 24 23 23 22 21
13 15 17 16 17 16 15 13 13 14 15 11 12 14 12 8 4 3 4 5 5 6 6 5 5 4 5 5 6 6 7 8 8 11 14 14 16 22 24 24 24 24 23
12 14 15 17 17 16 13 12 14 16 15 13 16 16 16 13 9 3 4 5 5 5 4 4 5 4 5 5 5 5 5 6 9 9 10 11 12 14 18 22 24 24 24
11 11 13 14 14 14 12 12 13 14 13 15 17 16 18 18 14 6 5 5 5 4 4 5 4 4 4 5 5 5 5 5 6 7 8 9 11 13 14 17 21 23 24
9 9 10 10 11 10 8 9 9 11 12 14 14 16 21 19 17 9 6 7 5 4 4 4 5 4 4 4 4 4 5 5 5 6 7 7 8 12 13 13 14 16 20
11 11 11 11 11 9 8 8 9 10 12 12 11 19 21 20 19 11 9 8 6 5 6 6 4 4 4 2 1 3 4 4 5 5 5 6 7 9 11 12 12 11 12
13 14 14 13 13 11 8 6 5 6 6 9 8 15 19 20 19 13 12 9 7 6 6 6 5 4 3 3 3 2 3 4 2 2 3 5 6 5 7 9 10 11 10
14 15 16 15 14 12 10 6 7 5 6 8 11 13 17 21 20 15 15 11 9 7 6 7 6 6 5 3 3 4 3 5 3 2 1 2 4 5 5 6 7 10 11
13 13 13 13 13 12 10 7 8 8 7 7 9 10 16 19 18 17 15 12 9 7 7 7 7 5 6 4 2 2 3 3 3 1 2 2 1 3 5 5 6 6 9
12 12 12 13 12 11 10 9 8 8 7 8 10 13 14 15 16 16 15 11 8 6 7 7 6 6 5 5 4 3 2 1 1 2 2 1 2 2 2 4 5 5 7
12 12 13 13 11 11 10 9 9 10 11 13 14 14 14 13 14 17 17 12 7 4 4 5 6 7 6 5 5 4 4 3 3 3 3 2 1 1 2 1 4 5 6
Wind_Direction
172 177 169 166 164 163 162 161 158 156 155 156 160 162 164 158 150 151 155 157 158 161 169 164 149 136 127 127 127 126 121 115 107 103 108 115 116 111 101 90 109 111 105
164 174 171 169 170 171 171 168 164 162 164 166 167 170 176 180 182 188 193 196 196 196 200 205 198 177 159 151 145 142 140 135 127 106 96 103 115 115 107 96 102 116 114
152 172 173 173 174 175 176 174 172 173 174 177 181 186 190 196 206 214 219 218 214 210 211 217 219 208 192 175 164 163 164 159 148 133 113 103 126 125 118 109 105 111 115
158 171 173 175 175 177 179 180 181 184 186 189 196 203 213 220 223 219 238 230 224 218 215 221 226 223 210 192 182 182 183 181 171 160 159 186 187 147 131 122 115 112 113
158 172 176 175 176 178 181 185 190 193 197 201 207 218 226 228 234 237 254 260 227 213 209 210 215 219 214 202 195 195 196 199 198 184 179 213 206 171 145 132 126 120 116
165 174 176 175 176 178 183 190 196 202 207 212 219 234 240 238 229 218 251 278 221 206 202 204 213 219 219 214 208 207 206 209 217 201 191 206 187 174 153 143 137 133 125
153 166 174 177 179 181 187 194 201 207 216 222 230 244 251 255 234 210 206 220 216 209 203 207 218 223 225 224 222 220 218 215 221 217 202 202 190 176 160 155 152 149 143
137 149 171 186 187 188 193 199 204 210 218 226 234 241 249 263 241 216 213 220 218 216 211 211 218 226 227 227 227 227 227 221 228 230 217 203 195 181 168 165 163 164 162
105 112 141 200 207 209 210 211 214 218 225 232 238 241 241 248 256 240 222 220 218 217 215 215 224 235 239 236 233 230 228 225 229 231 228 204 203 190 175 170 170 173 174
72 74 56 304 223 237 237 229 224 225 229 235 241 244 241 240 242 241 234 228 223 218 213 216 226 235 243 246 244 238 232 228 229 232 230 220 212 199 182 175 174 176 177
61 58 56 57 52 282 245 231 233 235 238 242 244 242 240 240 243 246 246 242 235 224 218 221 229 236 240 244 245 244 239 229 228 233 228 228 218 207 191 181 178 178 180
40 34 36 48 42 37 34 18 252 259 260 255 251 248 242 238 239 245 252 250 239 229 224 227 234 241 244 244 248 246 235 228 224 233 233 234 224 212 200 187 183 183 185
19 19 14 19 24 28 29 26 344 307 291 278 263 252 249 246 245 245 248 257 241 230 228 240 250 246 241 239 244 244 235 228 224 229 233 236 227 216 207 194 188 188 189
24 17 14 14 13 14 18 12 8 357 337 322 304 276 249 239 241 235 225 232 228 226 229 240 244 246 243 241 240 241 239 234 229 229 231 232 224 216 211 202 194 193 194
24 16 13 19 16 11 12 4 5 358 353 346 343 340 318 244 248 243 228 223 225 227 226 228 232 240 242 241 240 237 234 231 232 229 229 226 220 215 212 209 203 198 198
22 16 13 21 15 13 13 5 358 354 351 351 348 339 335 311 263 261 254 235 227 226 230 228 232 233 237 238 245 244 239 233 232 230 224 221 217 214 214 213 208 204 203
19 17 16 18 15 14 11 5 360 355 352 348 340 333 328 320 294 259 251 250 245 241 241 244 250 243 246 245 252 258 252 238 231 225 219 213 213 215 214 213 210 208 207
23 19 16 16 14 13 10 3 0 355 352 348 341 334 327 320 305 275 255 251 250 249 239 240 244 252 255 259 265 270 264 248 232 218 209 203 203 209 216 218 212 210 211
17 14 12 11 11 8 4 1 358 356 353 347 341 336 329 321 309 285 262 254 251 245 242 240 229 220 240 254 259 261 262 255 238 219 204 198 199 204 209 221 221 214 212
4 4 4 1 0 358 359 359 358 356 352 346 341 336 333 325 315 300 274 260 249 240 241 231 225 216 218 231 254 266 262 257 247 227 214 203 201 205 206 213 221 222 217
358 356 354 355 351 353 355 358 357 353 347 342 337 334 331 327 319 307 290 269 247 231 228 221 208 204 210 193 216 291 288 263 247 239 221 206 205 204 200 204 208 212 218
356 353 352 350 345 344 341 337 334 331 328 329 326 329 329 326 319 311 295 275 249 230 222 212 199 184 201 184 175 216 294 312 298 269 230 211 207 200 202 200 198 199 202
357 353 351 343 339 336 332 330 332 331 331 342 341 335 330 326 317 308 296 280 252 223 214 209 196 179 189 206 185 177 199 235 286 325 322 214 197 189 186 178 180 184 187
356 350 345 340 337 335 334 338 344 350 341 329 328 323 324 324 320 314 301 285 256 227 211 209 200 187 169 187 195 193 199 187 192 249 348 2 43 167 166 163 157 154 160
352 348 342 338 338 337 339 340 344 344 334 328 331 327 327 325 324 322 312 298 271 242 220 206 196 189 176 171 174 171 174 165 151 160 184 337 23 34 131 144 136 134 142
348 346 343 341 339 340 342 341 343 344 339 339 339 335 332 328 328 329 327 317 301 279 248 223 202 189 182 168 165 163 165 166 182 159 165 184 174 353 19 97 133 136 140
Height
1519 1519 1519 1518 1519 1519 1519 1519 1520 1520 1520 1521 1522 1522 1523 1524 1525 1525 1526 1527 1527 1527 1528 1528 1528 1528 1528 1528 1528 1529 1529 1530 1530 1531 1531 1532 1532 1532 1532 1533 1533 1534 1534
1520 1519 1519 1519 1519 1519 1519 1519 1519 1520 1520 1520 1521 1521 1522 1523 1524 1524 1525 1525 1526 1526 1526 1527 1527 1527 1527 1527 1528 1528 1529 1530 1530 1531 1531 1532 1532 1532 1533 1533 1533 1534 1534
1520 1520 1520 1520 1520 1520 1520 1520 1520 1520 1520 1520 1520 1521 1521 1522 1523 1523 1524 1524 1525 1525 1525 1526 1526 1526 1526 1526 1527 1527 1528 1529 1530 1530 1531 1531 1532 1533 1533 1533 1533 1534 1534
1520 1520 1521 1521 1521 1521 1521 1521 1520 1520 1520 1520 1520 1520 1521 1521 1522 1522 1523 1523 1524 1524 1524 1524 1525 1525 1526 1526 1526 1526 1527 1528 1529 1529 1530 1531 1531 1532 1533 1533 1533 1534 1534
1520 1521 1521 1522 1522 1522 1522 1521 1520 1520 1519 1519 1519 1520 1520 1520 1521 1521 1522 1522 1523 1523 1523 1523 1524 1524 1525 1525 1525 1525 1526 1527 1528 1528 1529 1530 1531 1532 1532 1533 1533 1533 1534
1520 1521 1522 1522 1522 1522 1522 1522 1521 1520 1519 1519 1519 1519 1519 1519 1520 1520 1520 1521 1521 1522 1522 1522 1522 1523 1523 1524 1524 1524 1525 1526 1527 1527 1528 1528 1529 1530 1532 1532 1532 1533 1533
1520 1521 1522 1522 1522 1522 1522 1522 1521 1520 1519 1519 1518 1518 1518 1518 1518 1518 1519 1519 1520 1520 1520 1521 1521 1521 1521 1522 1522 1523 1524 1525 1526 1526 1526 1527 1528 1529 1530 1531 1531 1532 1532
1521 1521 1522 1522 1522 1522 1521 1521 1520 1520 1519 1518 1518 1517 1517 1516 1517 1516 1516 1517 1517 1518 1518 1519 1519 1519 1520 1520 1520 1521 1522 1523 1524 1525 1525 1526 1527 1528 1529 1530 1530 1531 1531
1522 1522 1521 1521 1521 1520 1520 1520 1519 1519 1518 1517 1516 1516 1515 1515 1515 1515 1514 1514 1515 1515 1515 1516 1516 1517 1517 1517 1518 1518 1519 1520 1521 1522 1523 1524 1525 1526 1527 1528 1529 1529 1530
1523 1522 1521 1521 1520 1519 1519 1518 1518 1517 1517 1516 1515 1514 1514 1513 1513 1513 1512 1512 1512 1512 1512 1513 1513 1514 1514 1514 1515 1516 1516 1517 1518 1519 1520 1521 1523 1524 1525 1526 1527 1528 1528
1523 1523 1523 1521 1520 1518 1518 1517 1517 1516 1515 1514 1513 1513 1512 1511 1511 1510 1510 1510 1510 1510 1510 1510 1510 1510 1510 1511 1511 1512 1513 1513 1515 1516 1517 1519 1520 1521 1523 1524 1525 1526 1526
1525 1525 1524 1522 1520 1518 1517 1517 1516 1515 1514 1513 1512 1511 1510 1510 1509 1509 1508 1508 1508 1507 1507 1507 1507 1506 1506 1506 1507 1508 1509 1510 1511 1512 1514 1515 1517 1518 1519 1521 1522 1523 1524
1526 1526 1525 1523 1520 1518 1517 1516 1515 1514 1513 1512 1510 1509 1508 1507 1507 1506 1506 1505 1505 1505 1504 1504 1503 1502 1501 1501 1502 1503 1504 1506 1507 1508 1510 1511 1513 1515 1516 1517 1519 1520 1521
1526 1525 1523 1521 1519 1518 1517 1516 1515 1514 1512 1511 1509 1508 1506 1505 1504 1503 1503 1502 1502 1501 1501 1500 1500 1499 1498 1498 1497 1498 1499 1500 1502 1504 1505 1507 1509 1511 1512 1514 1516 1517 1518
1526 1524 1522 1520 1518 1517 1516 1514 1513 1512 1511 1510 1508 1507 1505 1503 1502 1501 1500 1499 1498 1498 1497 1497 1496 1495 1494 1494 1494 1494 1494 1495 1497 1499 1500 1502 1504 1506 1508 1510 1511 1513 1515
1528 1526 1523 1521 1518 1517 1515 1513 1512 1510 1509 1507 1506 1505 1503 1502 1500 1498 1497 1496 1495 1494 1493 1493 1492 1491 1490 1490 1490 1489 1489 1490 1492 1494 1495 1497 1499 1501 1503 1505 1507 1508 1510
1531 1528 1524 1521 1519 1516 1514 1512 1510 1508 1506 1504 1503 1502 1500 1499 1497 1495 1493 1492 1491 1490 1489 1488 1487 1486 1485 1485 1485 1485 1485 1485 1486 1488 1490 1492 1494 1496 1498 1500 1502 1504 1506
1532 1528 1525 1522 1518 1515 1513 1510 1508 1506 1504 1502 1500 1498 1496 1495 1493 1491 1489 1487 1486 1485 1484 1483 1482 1481 1480 1480 1479 1479 1479 1480 1481 1482 1484 1486 1488 1490 1492 1495 1497 1499 1501
1533 1529 1525 1521 1517 1514 1511 1508 1505 1503 1500 1498 1496 1494 1492 1490 1488 1486 1484 1483 1481 1480 1478 1477 1476 1476 1475 1474 1474 1474 1474 1474 1475 1476 1477 1479 1482 1484 1486 1489 1491 1493 1495
1534 1529 1525 1521 1517 1513 1509 1505 1501 1498 1495 1493 1490 1488 1486 1484 1482 1480 1478 1477 1476 1474 1472 1472 1471 1470 1469 1469 1468 1468 1468 1468 1469 1470 1471 1473 1475 1477 1480 1482 1485 1488 1490
1533 1529 1524 1520 1515 1511 1506 1501 1496 1493 1490 1487 1484 1481 1479 1477 1475 1473 1471 1470 1469 1468 1466 1466 1465 1464 1464 1463 1463 1462 1462 1462 1463 1464 1465 1467 1468 1471 1473 1476 1479 1481 1484
1534 1529 1524 1519 1515 1510 1505 1501 1497 1492 1488 1484 1479 1476 1472 1469 1467 1465 1463 1462 1461 1461 1460 1459 1459 1458 1458 1458 1458 1458 1457 1457 1456 1457 1458 1460 1462 1464 1466 1469 1472 1475 1478
1534 1529 1524 1519 1514 1509 1503 1498 1493 1487 1483 1478 1472 1468 1465 1462 1459 1457 1456 1454 1453 1453 1452 1452 1452 1452 1452 1453 1453 1454 1454 1452 1452 1452 1453 1454 1456 1458 1460 1463 1465 1469 1472
1534 1529 1523 1517 1512 1506 1501 1495 1489 1483 1478 1474 1469 1464 1460 1456 1452 1450 1448 1447 1446 1446 1446 1446 1445 1446 1446 1447 1448 1449 1450 1449 1449 1448 1449 1449 1451 1453 1455 1457 1460 1463 1466
1532 1526 1520 1514 1509 1503 1498 1492 1487 1482 1476 1471 1465 1460 1454 1450 1446 1443 1441 1439 1439 1439 1439 1439 1439 1440 1440 1441 1443 1444 1445 1445 1446 1446 1446 1447 1448 1449 1451 1453 1455 1458 1461
1530 1524 1517 1511 1505 1500 1495 1490 1485 1479 1473 1467 1461 1455 1449 1444 1440 1437 1434 1432 1432 1432 1432 1433 1433 1434 1434 1436 1437 1438 1440 1441 1442 1443 1443 1444 1446 1448 1449 1451 1454 1456 1458